WS Maaseik 1 Meer informatie WS Maaseik 1


WS Maaseik 2 Meer informatie WS Maaseik 2


Regen radar Meer informatie rain snow radar


Bezoek onze andere website:

Vorige versie
weerstation Maaseik


Bezoek ook eens deze sites:

Weerstation Geleen



Het weer levert geen direct gevaar op.    Er zijn geen waarschuwingen afgegeven.

15 daagse weersverwachting Sønderborg (DK)

  • Overzicht
  • Per uur
  • 15 dagen
  • Extra
  • Vergelijk
  • Kaarten
  • Dagkaart
  • Meer »
  • Info
  • Statistieken
  • Directe link
    Temp 6h Neerslag Wind  
 05:40     21:14    Daglengte: 15:34 Vandaag
20:00
19°
 
5
 05:42     21:12    Daglengte: 15:30 Morgen
02:00
17°
 
6
08:00
18°
 
6
14:00
21°
1.3 mm
9
20:00
19°
0.8 mm
8
 05:44     21:10    Daglengte: 15:26 Zaterdag 07 Aug
02:00
17°
15.5 mm
5
warningclass
08:00
16°
1.8 mm
4
14:00
19°
 
5
20:00
18°
18.9 mm
3
 05:46     21:08    Daglengte: 15:22 Zondag 08 Aug
02:00
16°
29.1 mm
4
warningclass
08:00
17°
16.3 mm
5
Locatie info
Region: Syddanmark
Latitude: 54.9100°N
Longitude: 9.7900°E
17 masl
Postcode: 6400
Temp/Neerslag /Baro Onweer/Dauwpunt
    Temp Baro 1h Neerslag Dauwpunt Wind UV Bewolking  
 05:40     21:14    Daglengte: 15:34 Vandaag
15:00
20°
1010.9 hPa   12.2°
5
Windvlaag: 3.1 m/s
26%
16:00
20°
1010.4 hPa   12.3°
5
Windvlaag: 3.7 m/s
12%
17:00
21°
1009.9 hPa   12.3°
6
Windvlaag: 3.9 m/s
6%
18:00
21°
1009.4 hPa   12.2°
5
Windvlaag: 4.2 m/s
4%
19:00
20°
1009.0 hPa   11.9°
5
Windvlaag: 3.8 m/s
4%
20:00
19°
1008.8 hPa   12.7°
5
Windvlaag: 3.5 m/s
6%
21:00
19°
1008.8 hPa   13.2°
5
Windvlaag: 3.7 m/s
31%
22:00
18°
1008.9 hPa   12.7°
5
Windvlaag: 3.7 m/s
31%
23:00
18°
1008.7 hPa   12.7°
6
Windvlaag: 3.7 m/s
10%
 05:42     21:12    Daglengte: 15:30 Morgen
00:00
17°
1008.4 hPa   13.3°
6
Windvlaag: 4.5 m/s
34%
01:00
17°
1007.8 hPa   13.7°
6
Windvlaag: 5.3 m/s
11%
02:00
17°
1007.5 hPa   14.1°
6
Windvlaag: 6.3 m/s
42%
03:00
17°
1007.0 hPa   14.4°
6
Windvlaag: 6.3 m/s
13%
04:00
17°
1006.5 hPa   14.6°
6
Windvlaag: 5.9 m/s
23%
05:00
17°
1006.0 hPa   14.8°
6
Windvlaag: 4.9 m/s
34%
06:00
17°
1005.9 hPa   15.2°
6
Windvlaag: 4.6 m/s
14%
07:00
17°
1005.6 hPa   15.5°
6
Windvlaag: 4.2 m/s
40%
08:00
18°
1005.5 hPa   15.7°
6
Windvlaag: 4.5 m/s
43%
09:00
18°
1005.3 hPa 0.5 mm
26%
15.6°
7
Windvlaag: 4.7 m/s
52%
10:00
19°
1005.1 hPa 0.7 mm
27%
15.3°
7
Windvlaag: 5.7 m/s
30%
11:00
20°
1004.8 hPa
27%
14.9°
8
Windvlaag: 6.5 m/s
3%
12:00
20°
1004.4 hPa
25%
14.4°
8
Windvlaag: 6.5 m/s
3%
13:00
20°
1004.1 hPa
29%
14.2°
9
Windvlaag: 6.4 m/s
7%
14:00
21°
1003.7 hPa
29%
13.4°
9
Windvlaag: 5.9 m/s
17%
15:00
21°
1003.4 hPa
19%
13.1°
9
Windvlaag: 5.8 m/s
57%
16:00
21°
1003.1 hPa
29%
13.3°
9
Windvlaag: 6.3 m/s
44%
17:00
21°
1003.0 hPa
28%
13.0°
9
Windvlaag: 7.9 m/s
49%
18:00
21°
1002.8 hPa
35%
13.0°
9
Windvlaag: 9 m/s
55%
19:00
20°
1002.9 hPa 0.4 mm
65%
12.2°
9
Windvlaag: 7.9 m/s
69%
20:00
19°
1002.9 hPa 0.4 mm
76%
13.8°
8
Windvlaag: 8.4 m/s
84%
21:00
18°
1003.2 hPa 1.7 mm
82%
14.8°
8
Windvlaag: 7.7 m/s
86% warningclass
22:00
18°
1003.4 hPa 3.0 mm
82%
14.1°
7
Windvlaag: 8.3 m/s
86% warningclass
23:00
17°
1003.6 hPa 3.8 mm
82%
13.8°
6
Windvlaag: 9.2 m/s
86% warningclass
 05:44     21:10    Daglengte: 15:26 Zaterdag 07 Aug
00:00
17°
1003.5 hPa 2.8 mm
82%
13.9°
5
Windvlaag: 8.2 m/s
70% warningclass
01:00
17°
1003.3 hPa 2.3 mm
82%
14.4°
5
Windvlaag: 8 m/s
63% warningclass
02:00
17°
1003.3 hPa 2.0 mm
82%
14.7°
5
Windvlaag: 7 m/s
19% warningclass
03:00
17°
1003.2 hPa 1.8 mm
82%
14.7°
5
Windvlaag: 6.4 m/s
65%
04:00
17°
1003.2 hPa
72%
15.1°
5
Windvlaag: 6.5 m/s
41%
05:00
17°
1003.0 hPa
74%
15.4°
3
Windvlaag: 6.5 m/s
67%
06:00
16°
1003.1 hPa
68%
15.4°
3
Windvlaag: 6.9 m/s
69%
07:00
16°
1003.2 hPa
22%
15.3°
4
Windvlaag: 6 m/s
60%
08:00
16°
1003.4 hPa
20%
15.2°
4
Windvlaag: 6.8 m/s
47%
09:00
17°
1003.6 hPa
22%
15.3°
4
Windvlaag: 7.1 m/s
13%
10:00
17°
1003.7 hPa
30%
15.3°
4
Windvlaag: 7.4 m/s
14%
11:00
18°
1003.6 hPa
38%
14.7°
5
Windvlaag: 7.7 m/s
30%
12:00
19°
1003.5 hPa
38%
14.8°
5
Windvlaag: 7.8 m/s
23%
13:00
19°
1003.3 hPa
94%
14.9°
5
Windvlaag: 7.8 m/s
67%
14:00
19°
1003.2 hPa
100%
14.0°
5
Windvlaag: 7.8 m/s
52%
15:00
20°
1003.0 hPa
95%
13.0°
5
Windvlaag: 6 m/s
47%
16:00
20°
1003.0 hPa 3.9 mm
94%
11.9°
4
Windvlaag: 4.8 m/s
78%
17:00
19°
1002.7 hPa 4.3 mm
100%
12.2°
3
Windvlaag: 3.7 m/s
77%
18:00
19°
1002.5 hPa 4.1 mm
100%
11.8°
3
Windvlaag: 4.7 m/s
71%
19:00
19°
1002.3 hPa 4.2 mm
100%
13.0°
3
Windvlaag: 4.2 m/s
98%
20:00
18°
1002.1 hPa 2.4 mm
95%
13.8°
3
Windvlaag: 2.8 m/s
92%
21:00
17°
1002.1 hPa 4.8 mm
34%
14.4°
3
Windvlaag: 2.9 m/s
86%
22:00
17°
1001.9 hPa 4.3 mm
48%
14.3°
3
Windvlaag: 2.6 m/s
84%
23:00
17°
1001.5 hPa 4.0 mm
100%
14.6°
3
Windvlaag: 2.6 m/s
69%
 05:46     21:08    Daglengte: 15:22 Zondag 08 Aug
00:00
17°
1001.4 hPa 5.3 mm
100%
14.8°
3
Windvlaag: 3.2 m/s
34% warningclass
01:00
16°
1001.3 hPa 5.3 mm
100%
14.8°
4
Windvlaag: 4.7 m/s
28% warningclass
02:00
16°
1001.0 hPa 5.3 mm
100%
14.9°
4
Windvlaag: 5.2 m/s
56% warningclass
03:00
16°
1000.9 hPa 6.0 mm
100%
14.6°
4
Windvlaag: 5.7 m/s
74% warningclass
04:00
16°
1000.5 hPa 4.8 mm
99%
14.4°
4
Windvlaag: 5.2 m/s
84% warningclass
05:00
16°
1000.7 hPa 4.5 mm
97%
14.2°
4
Windvlaag: 5.8 m/s
87%
06:00
16°
1000.6 hPa
38%
14.2°
4
Windvlaag: 6.3 m/s
85%
07:00
16°
1000.7 hPa
89%
15.4°
4
Windvlaag: 6.3 m/s
53%
08:00
17°
1000.8 hPa 4.0 mm
100%
14.6°
5
Windvlaag: 7 m/s
57%
09:00
17°
1001.0 hPa 0.8 mm
100%
-35.4°
5
Windvlaag: 0 m/s
47% warningclass
Temp/Neerslag /Baro Onweer/Dauwpunt
    Temp Baro Neerslag Dauwpunt Wind Bewolking  
 05:40     21:14    Daglengte: 15:34 Vandaag
17:00
21°
1009.9 hPa   12.3°
6
6%
20:00
19°
1008.8 hPa   12.7°
5
6%
23:00
18°
1008.7 hPa   12.7°
6
10%
 05:42     21:12    Daglengte: 15:30 Morgen
02:00
17°
1007.5 hPa   14.1°
6
42%
05:00
17°
1006.0 hPa   14.8°
6
34%
08:00
18°
1005.5 hPa   15.7°
6
43%
11:00
20°
1004.8 hPa 1.3 mm 14.9°
8
3%
14:00
21°
1003.7 hPa   13.4°
9
17%
17:00
21°
1003.0 hPa   13.0°
9
49%
20:00
19°
1002.9 hPa 0.8 mm 13.8°
8
84%
23:00
17°
1003.6 hPa 8.5 mm 13.8°
6
86% warningclass
 05:44     21:10    Daglengte: 15:26 Zaterdag 07 Aug
02:00
17°
1003.3 hPa 7.0 mm 14.7°
5
19% warningclass
05:00
17°
1003.0 hPa 1.8 mm 15.4°
3
67%
08:00
16°
1003.4 hPa   15.2°
4
47%
11:00
18°
1003.6 hPa   14.7°
5
30%
14:00
19°
1003.2 hPa   14.0°
5
52%
17:00
19°
1002.7 hPa 8.2 mm 12.2°
3
77%
20:00
18°
1002.1 hPa 10.8 mm 13.8°
3
92%
23:00
17°
1001.5 hPa 13.2 mm 14.6°
3
69%
 05:46     21:08    Daglengte: 15:22 Zondag 08 Aug
02:00
16°
1001.0 hPa 15.9 mm 14.9°
4
56% warningclass
05:00
16°
1000.7 hPa 15.3 mm 14.2°
4
87%
08:00
17°
1000.8 hPa 11.8 mm 14.6°
5
57%
11:00
18°
1001.7 hPa 5.0 mm 14.1°
7
64%
14:00
20°
1002.6 hPa   14.8°
6
0%
17:00
18°
1006.0 hPa 24.3 mm 13.3°
8
1%
20:00
16°
1006.8 hPa 25.7 mm 14.7°
8
1%
23:00
15°
1008.6 hPa 26.0 mm 13.8°
7
1%
 05:47     21:06    Daglengte: 15:19 Maandag 09 Aug
02:00
16°
1008.9 hPa 26.3 mm 13.8°
8
1%
05:00
16°
1009.4 hPa 26.5 mm 13.5°
7
1%
08:00
16°
1010.7 hPa 27.7 mm 13.4°
7
1%
11:00
17°
1012.3 hPa 28.9 mm 13.8°
9
1%
14:00
18°
1013.1 hPa 29.2 mm 12.9°
9
1%
17:00
18°
1013.8 hPa 30.3 mm 14.6°
8
1%
20:00
17°
1014.7 hPa 31.0 mm 13.8°
7
1%
23:00
14°
1015.9 hPa 31.0 mm 12.8°
5
1%
 05:49     21:04    Daglengte: 15:15 Dinsdag 10 Aug
02:00
14°
1016.4 hPa 31.0 mm 11.9°
5
1%
05:00
14°
1016.4 hPa 31.0 mm 12.4°
4
1%
08:00
16°
1017.0 hPa 31.0 mm 12.8°
4
1%
11:00
19°
1017.5 hPa 31.0 mm 12.4°
5
1%
14:00
20°
1017.4 hPa 31.2 mm 12.7°
7
1%
17:00
17°
1017.6 hPa 32.6 mm 15.5°
6
1%
20:00
17°
1017.7 hPa 32.9 mm 15.5°
6
1%
23:00
16°
1018.2 hPa 32.9 mm 15.3°
4
1%
 05:51     21:02    Daglengte: 15:11 Woensdag 11 Aug
02:00
16°
1018.3 hPa 33.0 mm 15.4°
4
1%
05:00
15°
1018.0 hPa 33.0 mm 14.7°
4
1%
08:00
17°
1018.0 hPa 33.0 mm 15.0°
4
1%
11:00
20°
1018.0 hPa 33.0 mm 14.9°
5
1%
14:00
22°
1017.8 hPa 33.0 mm 14.1°
6
1%
17:00
22°
1017.7 hPa 33.1 mm 14.5°
7
1%
20:00
20°
1018.0 hPa 33.1 mm 15.7°
5
1%
23:00
16°
1019.5 hPa 33.1 mm 15.7°
4
0%
 05:53     21:00    Daglengte: 15:07 Donderdag 12 Aug
02:00
16°
1020.3 hPa 33.1 mm 14.9°
4
0%
05:00
15°
1020.8 hPa 33.1 mm 13.0°
4
0%
08:00
16°
1021.6 hPa 33.1 mm 13.4°
5
0%
11:00
19°
1022.9 hPa 33.1 mm 10.4°
5
1%
14:00
20°
1023.1 hPa 66.3 mm 9.2°
6
0%
20:00
17°
1024.2 hPa 66.3 mm 11.5°
5
1%
 05:55     20:57    Daglengte: 15:02 Vrijdag 13 Aug
02:00
13°
1025.2 hPa 66.3 mm 11.4°
3
0%
08:00
15°
1025.2 hPa 66.3 mm 11.3°
3
0%
14:00
21°
1024.0 hPa 66.3 mm 10.6°
4
0%
20:00
21°
1021.4 hPa 66.3 mm 13.1°
1
0%
 05:57     20:55    Daglengte: 14:58 Zaterdag 14 Aug
02:00
16°
1020.8 hPa 66.3 mm 14.1°
3
0%
08:00
18°
1018.9 hPa 66.3 mm 14.2°
3
0%
14:00
22°
1016.4 hPa 66.3 mm 12.5°
4
0%
20:00
19°
1013.9 hPa 66.3 mm 14.5°
4
0%
 05:59     20:53    Daglengte: 14:54 Zondag 15 Aug
02:00
18°
1011.6 hPa 66.3 mm 14.1°
6
1%
08:00
16°
1010.4 hPa 0.7 mm 12.6°
3
59%
14:00
19°
1010.4 hPa 1.0 mm 13.0°
4
71%
20:00
17°
1010.4 hPa 1.2 mm 13.1°
3
65%
 06:00     20:51    Daglengte: 14:51 Maandag 16 Aug
02:00
15°
1011.0 hPa 0.6 mm 12.4°
2
60%
08:00
15°
1010.5 hPa 0.5 mm 12.8°
2
62%
14:00
19°
1011.1 hPa 1.2 mm 13.2°
3
54%
20:00
18°
1011.3 hPa 0.7 mm 13.6°
3
55%
 06:02     20:48    Daglengte: 14:46 Dinsdag 17 Aug
02:00
15°
1012.1 hPa 0.7 mm 12.9°
4
58%
08:00
15°
1012.4 hPa 0.7 mm 13.1°
4
62%
14:00
19°
1013.1 hPa 0.2 mm 13.5°
4
71%
20:00
17°
1012.8 hPa 0.7 mm 13.6°
4
68%
 06:04     20:46    Daglengte: 14:42 Woensdag 18 Aug
02:00
15°
1012.9 hPa 0.8 mm 13.2°
3
63%
08:00
16°
1012.4 hPa 0.6 mm 13.6°
3
68%
14:00
19°
1012.3 hPa 0.7 mm 14.6°
3
62%
20:00
18°
1011.9 hPa 0.7 mm 14.7°
3
57%
 06:06     20:44    Daglengte: 14:38 Donderdag 19 Aug
02:00
16°
1012.4 hPa 0.7 mm 13.7°
2
54%
08:00
16°
1012.5 hPa 0.5 mm 13.6°
2
56%
14:00
20°
1012.9 hPa 0.8 mm 14.1°
3
58%
20:00
18°
1012.5 hPa 0.8 mm 13.9°
2
57%
 06:08     20:41    Daglengte: 14:33 Vrijdag 20 Aug
02:00
16°
1012.8 hPa 0.4 mm 13.3°
2
48%
08:00
16°
1012.4 hPa 0.5 mm 13.2°
2
54%
14:00
19°
1012.4 hPa 0.6 mm 13.7°
3
59%
  CAPE Lifted Index Hail Supercell Tornado SRH 3km CL BTM PRES CL TOP PRES Swiss DWD icon SMHI TS
 05:40     21:14    Daglengte: 15:34 Vandaag
15:00 89 J/kg 1.1 K 0 % 0 % 0 % 0 m²/s² 0 0 2.03 2
16:00 97 J/kg 0.9 K 0 % 0 % 0 % 0 m²/s² 0 0 1.86 2
17:00 34 J/kg 1.1 K 0 % 0 % 0 % 0 m²/s² 0 0 2.18 1
18:00 2 J/kg 1.8 K 0 % 0 % 0 % 0 m²/s² 0 0 2.97 1
19:00 0 J/kg 2.2 K 0 % 0 % 0 % 0 m²/s² 0 0 3.37 1
20:00 40 J/kg 0.9 K 0 % 0 % 0 % 0 m²/s² 0 0 2.16 1
21:00 120 J/kg 0.0 K 0 % 0 % 0 % 0 m²/s² 0 0 1.11 3
22:00 48 J/kg 0.7 K 0 % 0 % 0 % 0 m²/s² 0 0 1.87 3
23:00 0 J/kg 0.9 K 0 % 0 % 0 % 0 m²/s² 0 0 2.13 1
 05:42     21:12    Daglengte: 15:30 Morgen
00:00 0 J/kg 0.5 K 0 % 0 % 0 % 0 m²/s² 0 0 1.67 2
01:00 19 J/kg 0.5 K 0 % 0 % 0 % 0 m²/s² 0 0 1.61 1
02:00 73 J/kg -0.1 K 0 % 0 % 0 % 0 m²/s² 0 0 1.19 3
03:00 116 J/kg -0.4 K 0 % 0 % 0 % 0 m²/s² 0 0 0.92 2
04:00 75 J/kg -0.2 K 0 % 0 % 0 % 0 m²/s² 0 0 1.24 2
05:00 84 J/kg -0.3 K 0 % 0 % 0 % 0 m²/s² 0 0 1.2 3
06:00 129 J/kg -0.7 K 0 % 0 % 0 % 0 m²/s² 0 0 0.68 2
07:00 254 J/kg -1.2 K 0 % 0 % 0 % 0 m²/s² 0 0 0.18 2
08:00 549 J/kg -2.3 K 0 % 0 % 0 % 0 m²/s² 0 0 -1.01 2
09:00 641 J/kg -2.6 K 0 % 0 % 0 % 0 m²/s² 0 0 -1.04 80
10:00 629 J/kg -2.5 K 0 % 0 % 0 % 0 m²/s² 0 0 -0.88 95
11:00 498 J/kg -2.0 K 0 % 0 % 0 % 0 m²/s² 0 0 -0.14 80
12:00 465 J/kg -2.0 K 0 % 0 % 0 % 0 m²/s² 0 0 -0.2 2
13:00 314 J/kg -1.3 K 0 % 0 % 0 % 0 m²/s² 0 0 0.56 3
14:00 112 J/kg -0.2 K 0 % 0 % 0 % 0 m²/s² 0 0 1.3 3
15:00 165 J/kg -0.6 K 0 % 0 % 0 % 0 m²/s² 0 0 0.57 3
16:00 312 J/kg -1.1 K 0 % 0 % 0 % 0 m²/s² 0 0 -0.11 3
17:00 245 J/kg -0.9 K 0 % 0 % 0 % 0 m²/s² 0 0 0.27 3
18:00 100 J/kg 0.0 K 0 % 0 % 0 % 0 m²/s² 0 0 0.69 3
19:00 0 J/kg -0.1 K 0 % 0 % 0 % 0 m²/s² 0 0 0.38 80
20:00 24 J/kg 0.5 K 0 % 0 % 0 % 0 m²/s² 0 0 0.71 80
21:00 165 J/kg 0.1 K 0 % 0 % 0 % 0 m²/s² 0 0 0.52 95
22:00 86 J/kg 0.2 K 0 % 0 % 0 % 0 m²/s² 0 0 0.23 95
23:00 129 J/kg -0.2 K 0 % 0 % 0 % 0 m²/s² 0 0 0.1 95
 05:44     21:10    Daglengte: 15:26 Zaterdag 07 Aug
00:00 9 J/kg -0.1 K 0 % 0 % 0 % 0 m²/s² 0 0 0.32 95
01:00 147 J/kg -1.2 K 0 % 0 % 0 % 0 m²/s² 0 0 -0.87 95
02:00 630 J/kg -2.5 K 0 % 0 % 0 % 0 m²/s² 0 0 -1.63 95
03:00 561 J/kg -2.5 K 0 % 0 % 0 % 0 m²/s² 0 0 -1.57 80
04:00 668 J/kg -2.8 K 0 % 0 % 0 % 0 m²/s² 0 0 -1.09 80
05:00 523 J/kg -2.4 K 0 % 0 % 0 % 0 m²/s² 0 0 0.75 80
06:00 72 J/kg -1.3 K 0 % 0 % 0 % 0 m²/s² 0 0 2.09 3
07:00 117 J/kg -1.4 K 0 % 0 % 0 % 0 m²/s² 0 0 2.17 3
08:00 312 J/kg -1.5 K 0 % 0 % 0 % 0 m²/s² 0 0 1.98 3
09:00 501 J/kg -2.1 K 0 % 0 % 0 % 0 m²/s² 0 0 0.63 2
10:00 650 J/kg -2.6 K 0 % 0 % 0 % 0 m²/s² 0 0 -0.26 2
11:00 718 J/kg -2.9 K 0 % 0 % 0 % 0 m²/s² 0 0 -0.17 2
12:00 754 J/kg -2.9 K 0 % 0 % 0 % 0 m²/s² 0 0 0.13 2
13:00 707 J/kg -2.6 K 0 % 0 % 0 % 0 m²/s² 0 0 0.34 3
14:00 665 J/kg -2.5 K 0 % 0 % 0 % 0 m²/s² 0 0 0.14 3
15:00 564 J/kg -2.0 K 0 % 0 % 0 % 0 m²/s² 0 0 0.88 1
16:00 628 J/kg -2.7 K 0 % 0 % 0 % 0 m²/s² 0 0 -0.3 80
17:00 641 J/kg -3.0 K 0 % 0 % 0 % 0 m²/s² 0 0 -0.81 80
18:00 609 J/kg -3.0 K 0 % 0 % 0 % 0 m²/s² 0 0 -0.93 80
19:00 603 J/kg -3.0 K 0 % 0 % 0 % 0 m²/s² 0 0 -1.17 80
20:00 643 J/kg -3.0 K 0 % 0 % 0 % 0 m²/s² 0 0 -1.68 3
21:00 555 J/kg -2.8 K 0 % 0 % 0 % 0 m²/s² 0 0 -1.27 3
22:00 395 J/kg -2.1 K 0 % 0 % 0 % 0 m²/s² 0 0 -0.15 3
23:00 314 J/kg -1.6 K 0 % 0 % 0 % 0 m²/s² 0 0 0.53 61
 05:46     21:08    Daglengte: 15:22 Zondag 08 Aug
00:00 205 J/kg -0.8 K 0 % 0 % 0 % 0 m²/s² 0 0 1.78 95
01:00 87 J/kg -0.1 K 0 % 0 % 0 % 0 m²/s² 0 0 2.87 95
02:00 127 J/kg -0.1 K 0 % 0 % 0 % 0 m²/s² 0 0 2.87 95
03:00 345 J/kg -1.0 K 0 % 0 % 0 % 0 m²/s² 0 0 2.3 95
04:00 454 J/kg -1.5 K 0 % 0 % 0 % 0 m²/s² 0 0 1.8 95
05:00 572 J/kg -2.1 K 0 % 0 % 0 % 0 m²/s² 0 0 1.02 80
06:00 614 J/kg -2.2 K 0 % 0 % 0 % 0 m²/s² 0 0 1.01 3
07:00 779 J/kg -2.5 K 0 % 0 % 0 % 0 m²/s² 0 0 0.62 3
08:00 1125 J/kg -3.2 K 0 % 0 % 0 % 0 m²/s² 0 0 -0.77 3
09:00 0 J/kg 0.0 K 0 % 0 % 0 % 0 m²/s² 0 0 13.83 95
Temp Baro Wind Neerslag
  EWN Forecast EWN WRFDA DWD ICON FMI HIRLAM MET Norway GFS
 05:40     21:14    Daglengte: 15:34 Vandaag
17:00 20.5° 1009.9 hPa 5.6 m/s 0.0 mm 21.5° 1008.7 hPa 4.2 m/s 0.0 mm 21.1° 1010.2 hPa 5.8 m/s 0.0 mm 20.3° 1009.5 hPa 4.5 m/s 0.0 mm 20.3° 1010.2 hPa 5.9 m/s
20:00 19.5° 1008.8 hPa 5.3 m/s 0.0 mm 19.5° 1008.0 hPa 3.0 m/s 0.0 mm 19.3° 1009.0 hPa 3.6 m/s 0.0 mm 19.3° 1008.4 hPa 5.5 m/s 0.0 mm 18.7° 1008.9 hPa 5.5 m/s
23:00 17.5° 1008.7 hPa 6.1 m/s 0.0 mm 15.9° 1007.6 hPa 4.1 m/s 0.0 mm 16.8° 1009.0 hPa 4.2 m/s 0.0 mm 17.6° 1008.5 hPa 6.2 m/s 0.0 mm 17.4° 1008.6 hPa 7.6 m/s
 05:42     21:12    Daglengte: 15:30 Morgen
02:00 16.8° 1007.5 hPa 6.2 m/s 0.0 mm 15.2° 1006.5 hPa 4.0 m/s 0.0 mm 16.0° 1007.7 hPa 4.8 m/s 0.0 mm 16.7° 1006.8 hPa 6.0 m/s 0.0 mm 17.4° 1007.4 hPa 7.0 m/s
05:00 16.6° 1006.0 hPa 5.9 m/s 0.0 mm 14.7° 1005.1 hPa 3.6 m/s 0.0 mm 15.8° 1006.3 hPa 5.3 m/s 0.0 mm 16.6° 1005.7 hPa 5.7 m/s 0.0 mm 17.5° 1006.1 hPa 6.5 m/s
08:00 17.8° 1005.5 hPa 6.5 m/s 0.0 mm 18.0° 1004.7 hPa 6.1 m/s 0.0 mm 17.6° 1006.0 hPa 6.2 m/s 0.0 mm 17.6° 1004.5 hPa 6.0 m/s 0.0 mm 18.6° 1005.2 hPa 6.6 m/s
11:00 19.5° 1004.8 hPa 8.1 m/s 1.3 mm 20.4° 1003.6 hPa 7.4 m/s 0.0 mm 19.4° 1005.3 hPa 7.2 m/s 1.9 mm 19.6° 1003.8 hPa 8.1 m/s 0.0 mm 20.1° 1004.9 hPa 8.2 m/s
14:00 20.7° 1003.7 hPa 9.0 m/s 0.0 mm 22.4° 1003.1 hPa 7.8 m/s 0.0 mm 20.6° 1004.5 hPa 7.7 m/s 0.1 mm 20.9° 1002.6 hPa 9.3 m/s 0.0 mm 21.1° 1003.9 hPa 9.3 m/s
17:00 20.9° 1003.0 hPa 9.2 m/s 0.0 mm 22.5° 1001.4 hPa 8.8 m/s 0.0 mm 20.6° 1004.0 hPa 8.5 m/s 0.1 mm 21.4° 1001.5 hPa 9.1 m/s 0.0 mm 18.3° 1003.3 hPa 6.9 m/s
20:00 19.2° 1002.9 hPa 8.3 m/s 0.8 mm 18.9° 1001.8 hPa 5.5 m/s 0.5 mm 18.1° 1004.0 hPa 7.3 m/s 1.1 mm 19.2° 1001.5 hPa 8.3 m/s 0.0 mm 16.7° 1003.0 hPa 7.2 m/s
23:00 17.4° 1003.6 hPa 6.4 m/s 8.5 mm 16.3° 1002.2 hPa 6.8 m/s 12.4 mm 17.4° 1003.9 hPa 6.2 m/s 7.4 mm 17.6° 1002.5 hPa 8.3 m/s 0.0 mm 16.9° 1002.8 hPa 6.9 m/s
 05:44     21:10    Daglengte: 15:26 Zaterdag 07 Aug
02:00 17.1° 1003.3 hPa 4.9 m/s 7.0 mm 16.5° 1001.2 hPa 5.6 m/s 21.6 mm 16.5° 1004.2 hPa 3.1 m/s 4.7 mm 17.3° 1002.7 hPa 6.8 m/s 0.0 mm 15.2° 1003.3 hPa 5.3 m/s
05:00 16.6° 1003.0 hPa 3.2 m/s 1.8 mm 15.0° 1000.6 hPa 3.6 m/s 23.9 mm 15.9° 1004.2 hPa 2.7 m/s 1.2 mm 16.8° 1002.3 hPa 2.8 m/s 0.0 mm 14.5° 1003.4 hPa 5.8 m/s
08:00 16.5° 1003.4 hPa 4.0 m/s 0.0 mm 16.0° 1000.8 hPa 3.9 m/s 24.4 mm 16.3° 1004.5 hPa 3.7 m/s 0.0 mm 16.5° 1002.8 hPa 3.8 m/s 0.0 mm 15.3° 1003.9 hPa 5.8 m/s
11:00 18.2° 1003.6 hPa 5.0 m/s 0.0 mm 18.3° 1000.7 hPa 4.8 m/s 24.8 mm 19.0° 1004.6 hPa 4.6 m/s 0.0 mm 18.1° 1004.2 hPa 5.9 m/s
14:00 19.5° 1003.2 hPa 4.9 m/s 0.0 mm 19.4° 1001.0 hPa 4.5 m/s 29.6 mm 20.2° 1004.3 hPa 4.7 m/s 0.0 mm 20.4° 1003.9 hPa 5.9 m/s
17:00 19.3° 1002.7 hPa 2.8 m/s 8.2 mm 20.2° 1000.8 hPa 4.7 m/s 32.9 mm 18.5° 1004.3 hPa 2.6 m/s 1.2 mm 20.4° 1004.3 hPa 5.6 m/s
20:00 18.5° 1002.1 hPa 2.7 m/s 10.8 mm 18.4° 1001.0 hPa 2.4 m/s 34.5 mm 17.8° 1003.6 hPa 4.1 m/s 1.2 mm 18.6° 1004.1 hPa 2.7 m/s
23:00 17.0° 1001.5 hPa 2.6 m/s 13.2 mm 13.3° 1000.8 hPa 0.9 m/s 35.0 mm 17.3° 1002.5 hPa 3.5 m/s 0.1 mm 16.0° 1003.9 hPa 3.0 m/s
 05:46     21:08    Daglengte: 15:22 Zondag 08 Aug
02:00 16.4° 1001.0 hPa 4.0 m/s 15.9 mm 11.4° 1000.8 hPa 1.3 m/s 35.0 mm 17.4° 1001.4 hPa 4.1 m/s 6.3 mm 15.8° 1003.8 hPa 5.1 m/s
05:00 15.7° 1000.7 hPa 3.7 m/s 15.3 mm 12.0° 999.8 hPa 2.3 m/s 35.0 mm 16.7° 1000.8 hPa 3.6 m/s 5.5 mm 14.7° 1002.7 hPa 5.1 m/s
08:00 16.8° 1000.8 hPa 4.5 m/s 11.8 mm 17.7° 999.4 hPa 2.7 m/s 35.0 mm 16.7° 1000.8 hPa 4.5 m/s 0.2 mm 15.6° 1002.8 hPa 5.7 m/s
11:00 18.1° 1001.7 hPa 6.8 m/s 5.0 mm 18.1° 1001.4 hPa 6.7 m/s 1.1 mm 17.7° 1003.7 hPa 7.2 m/s 20.5 mm
14:00 19.7° 1002.6 hPa 6.4 m/s 0.0 mm 19.9° 1002.3 hPa 6.2 m/s 0.0 mm 18.1° 1004.6 hPa 8.0 m/s 23.2 mm
17:00 18.1° 1006.0 hPa 8.4 m/s 24.3 mm 18.1° 1006.0 hPa 8.4 m/s 24.3 mm
20:00 16.4° 1006.8 hPa 7.6 m/s 25.7 mm 16.4° 1006.8 hPa 7.6 m/s 25.7 mm
23:00 15.3° 1008.6 hPa 7.0 m/s 26.0 mm 15.3° 1008.6 hPa 7.0 m/s 26.0 mm
 05:47     21:06    Daglengte: 15:19 Maandag 09 Aug
02:00 16.0° 1008.9 hPa 7.6 m/s 26.3 mm 16.0° 1008.9 hPa 7.6 m/s 26.3 mm
05:00 15.5° 1009.4 hPa 6.8 m/s 26.5 mm 15.5° 1009.4 hPa 6.8 m/s 26.5 mm
08:00 15.7° 1010.7 hPa 6.6 m/s 27.7 mm 15.7° 1010.7 hPa 6.6 m/s 27.7 mm
11:00 17.5° 1012.3 hPa 8.7 m/s 28.9 mm 17.5° 1012.3 hPa 8.7 m/s 28.9 mm
14:00 18.4° 1013.1 hPa 9.0 m/s 29.2 mm 18.4° 1013.1 hPa 9.0 m/s 29.2 mm
17:00 17.7° 1013.8 hPa 8.2 m/s 30.3 mm 17.7° 1013.8 hPa 8.2 m/s 30.3 mm
20:00 16.7° 1014.7 hPa 6.8 m/s 31.0 mm 16.7° 1014.7 hPa 6.8 m/s 31.0 mm
23:00 14.5° 1015.9 hPa 5.3 m/s 31.0 mm 14.5° 1015.9 hPa 5.3 m/s 31.0 mm
 05:49     21:04    Daglengte: 15:15 Dinsdag 10 Aug
02:00 13.9° 1016.4 hPa 5.0 m/s 31.0 mm 13.9° 1016.3 hPa 5.0 m/s 31.0 mm
05:00 13.9° 1016.4 hPa 4.5 m/s 31.0 mm 13.9° 1016.4 hPa 4.5 m/s 31.0 mm
08:00 15.7° 1017.0 hPa 4.2 m/s 31.0 mm 15.7° 1017.0 hPa 4.2 m/s 31.0 mm
11:00 19.5° 1017.5 hPa 5.3 m/s 31.0 mm 19.5° 1017.5 hPa 5.3 m/s 31.0 mm
14:00 20.4° 1017.4 hPa 6.9 m/s 31.2 mm 20.4° 1017.4 hPa 6.9 m/s 31.2 mm
17:00 16.7° 1017.6 hPa 6.1 m/s 32.6 mm 16.7° 1017.6 hPa 6.1 m/s 32.6 mm
20:00 17.2° 1017.7 hPa 5.5 m/s 32.9 mm 17.2° 1017.7 hPa 5.5 m/s 32.9 mm
23:00 16.1° 1018.2 hPa 3.9 m/s 32.9 mm 16.1° 1018.2 hPa 3.9 m/s 32.9 mm
 05:51     21:02    Daglengte: 15:11 Woensdag 11 Aug
02:00 16.3° 1018.3 hPa 3.9 m/s 33.0 mm 16.3° 1018.3 hPa 3.9 m/s 33.0 mm
05:00 15.3° 1018.0 hPa 3.9 m/s 33.0 mm 15.3° 1018.0 hPa 3.9 m/s 33.0 mm
08:00 16.9° 1018.0 hPa 4.3 m/s 33.0 mm 16.9° 1018.0 hPa 4.3 m/s 33.0 mm
11:00 19.8° 1018.0 hPa 5.3 m/s 33.0 mm 19.8° 1018.0 hPa 5.3 m/s 33.0 mm
14:00 22.4° 1017.8 hPa 6.4 m/s 33.0 mm 22.4° 1017.8 hPa 6.4 m/s 33.0 mm
17:00 22.0° 1017.7 hPa 6.9 m/s 33.1 mm 22.0° 1017.7 hPa 6.9 m/s 33.1 mm
20:00 19.6° 1018.0 hPa 5.4 m/s 33.1 mm 19.6° 1018.0 hPa 5.4 m/s 33.1 mm
23:00 16.4° 1019.5 hPa 4.4 m/s 33.1 mm 16.4° 1019.5 hPa 4.4 m/s 33.1 mm
 05:53     21:00    Daglengte: 15:07 Donderdag 12 Aug
02:00 15.7° 1020.3 hPa 4.1 m/s 33.1 mm 15.7° 1020.3 hPa 4.1 m/s 33.1 mm
05:00 14.5° 1020.8 hPa 4.4 m/s 33.1 mm 14.5° 1020.8 hPa 4.4 m/s 33.1 mm
08:00 15.9° 1021.6 hPa 4.6 m/s 33.1 mm 15.9° 1021.6 hPa 4.6 m/s 33.1 mm
11:00 18.7° 1022.9 hPa 4.8 m/s 33.1 mm 18.7° 1022.9 hPa 4.8 m/s 33.1 mm
14:00 20.2° 1023.1 hPa 6.2 m/s 33.1 mm 20.2° 1023.1 hPa 6.2 m/s 33.1 mm
20:00 17.4° 1024.2 hPa 4.8 m/s 33.1 mm 17.4° 1024.2 hPa 4.8 m/s 33.1 mm
 05:55     20:57    Daglengte: 15:02 Vrijdag 13 Aug
02:00 13.4° 1025.2 hPa 3.4 m/s 33.1 mm 13.4° 1025.2 hPa 3.4 m/s 33.1 mm
08:00 15.1° 1025.2 hPa 3.2 m/s 33.1 mm 15.1° 1025.2 hPa 3.2 m/s 33.1 mm
14:00 21.4° 1024.0 hPa 3.5 m/s 33.1 mm 21.4° 1024.0 hPa 3.5 m/s 33.1 mm
20:00 20.6° 1021.4 hPa 1.4 m/s 33.1 mm 20.6° 1021.4 hPa 1.4 m/s 33.1 mm
 05:57     20:55    Daglengte: 14:58 Zaterdag 14 Aug
02:00 16.4° 1020.8 hPa 2.8 m/s 33.1 mm 16.4° 1020.8 hPa 2.8 m/s 33.1 mm
08:00 17.7° 1018.9 hPa 2.6 m/s 33.1 mm 17.7° 1018.9 hPa 2.6 m/s 33.1 mm
14:00 21.9° 1016.4 hPa 4.4 m/s 33.2 mm 21.9° 1016.4 hPa 4.4 m/s 33.2 mm
20:00 19.4° 1013.9 hPa 4.2 m/s 33.2 mm 19.4° 1013.9 hPa 4.2 m/s 33.2 mm
 05:59     20:53    Daglengte: 14:54 Zondag 15 Aug
02:00 17.5° 1011.6 hPa 6.0 m/s 33.2 mm 17.5° 1011.6 hPa 6.0 m/s 33.2 mm
08:00 15.6° 1010.4 hPa 3.5 m/s 0.7 mm
14:00 18.7° 1010.4 hPa 3.8 m/s 1.0 mm
20:00 17.1° 1010.4 hPa 3.2 m/s 1.2 mm
 06:00     20:51    Daglengte: 14:51 Maandag 16 Aug
02:00 14.9° 1011.0 hPa 2.1 m/s 0.6 mm
08:00 15.5° 1010.5 hPa 2.2 m/s 0.5 mm
14:00 18.9° 1011.1 hPa 3.2 m/s 1.2 mm
20:00 17.6° 1011.3 hPa 3.0 m/s 0.7 mm
 06:02     20:48    Daglengte: 14:46 Dinsdag 17 Aug
02:00 15.1° 1012.1 hPa 3.8 m/s 0.7 mm
08:00 15.4° 1012.4 hPa 3.9 m/s 0.7 mm
14:00 18.6° 1013.1 hPa 4.4 m/s 0.2 mm
20:00 17.2° 1012.8 hPa 3.8 m/s 0.7 mm
 06:04     20:46    Daglengte: 14:42 Woensdag 18 Aug
02:00 15.4° 1012.9 hPa 3.0 m/s 0.8 mm
08:00 16.1° 1012.4 hPa 3.0 m/s 0.6 mm
14:00 19.5° 1012.3 hPa 3.4 m/s 0.7 mm
20:00 18.3° 1011.9 hPa 2.9 m/s 0.7 mm
 06:06     20:44    Daglengte: 14:38 Donderdag 19 Aug
02:00 16.0° 1012.4 hPa 2.4 m/s 0.7 mm
08:00 16.3° 1012.5 hPa 2.4 m/s 0.5 mm
14:00 19.6° 1012.9 hPa 2.9 m/s 0.8 mm
20:00 17.9° 1012.5 hPa 2.2 m/s 0.8 mm
 06:08     20:41    Daglengte: 14:33 Vrijdag 20 Aug
02:00 15.6° 1012.8 hPa 2.1 m/s 0.4 mm
08:00 15.9° 1012.4 hPa 2.4 m/s 0.5 mm
14:00 19.4° 1012.4 hPa 3.0 m/s 0.6 mm
FMI Hirlam - 7.5 km EWN WRFDA - 12 km DWD ICON - 7 km GFS - 25 km Basiskaart






























































Updatetijd (Europe/Brussels) Resolutie Lengte Stap
FMI Hirlam 14:00, 20:00, 02:00, 08:00 7.5 km 49h 1h
EWN WRFDA 04:15, 10:15, 16:15, 22:15 12 km 73h 1h
DWD ICON 11:45, 17:45, 23:45, 05:45 7 km 75h 1h
GFS 08:30, 14:30, 20:30, 02:30 25 km 237h 3h
30+ mm
25-30 mm
20-25 mm
15-20 mm
10-15 mm
6-10 mm
4-6 mm
2-4 mm
1-2 mm
0.5-1 mm
0.2-0.5 mm
0.1-0.2 mm
30+ mm
25-30 mm
20-25 mm
15-20 mm
10-15 mm
6-10 mm
4-6 mm
2-4 mm
1-2 mm
0.5-1 mm
0.2-0.5 mm
0.1-0.2 mm
Sneeuwval
Natte sneeuw
Hagel
Vorst
30+ mm
25-30 mm
20-25 mm
15-20 mm
10-15 mm
6-10 mm
4-6 mm
2-4 mm
1-2 mm
0.5-1 mm
0.2-0.5 mm
0.1-0.2 mm
Sneeuwval
Natte sneeuw
Hagel
Vorst
Onweer
50 mm
40 mm
30 mm
26 mm
22 mm
18 mm
14 mm
10 mm
9 mm
8 mm
7 mm
6 mm
5 mm
4.5 mm
4 mm
3.5 mm
3 mm
2.5 mm
2 mm
1.5 mm
1 mm
0.8 mm
0.6 mm
0.4 mm
0.2 mm
0.05 mm
35°
30°
25°
20°
15°
10°
-5°
-10°
-15°
-20°
-25°
-30°
-35°
33> m/s
29 m/s
25 m/s
21 m/s
17 m/s
14 m/s
11 m/s
8 m/s
5 m/s
3 m/s
0 m/s
2600 J/kg
2400 J/kg
2200 J/kg
2000 J/kg
1800 J/kg
1600 J/kg
1400 J/kg
1200 J/kg
1000 J/kg
800 J/kg
600 J/kg
400 J/kg
200 J/kg
70 dBZ
65 dBZ
60 dBZ
55 dBZ
50 dBZ
45 dBZ
40 dBZ
35 dBZ
30 dBZ
25 dBZ
20 dBZ
15 dBZ
10 dBZ
5 dBZ
-1 K
-2 K
-3 K
-4 K
-5 K
-6 K
-7 K
-8 K
-9 K
950 m²/s²
900 m²/s²
850 m²/s²
800 m²/s²
750 m²/s²
700 m²/s²
650 m²/s²
600 m²/s²
550 m²/s²
500 m²/s²
450 m²/s²
400 m²/s²
350 m²/s²
300 m²/s²
250 m²/s²
200 m²/s²
150 m²/s²
100 m²/s²
46 m/s
44 m/s
42 m/s
40 m/s
38 m/s
36 m/s
34 m/s
32 m/s
30 m/s
28 m/s
26 m/s
24 m/s
22 m/s
20 m/s
16 m/s
12 m/s
8 m/s
4 m/s